[[{"header":{"parameterUnit":"m.s-1","parameterCategory":1,"la1":30.2991,"la2":30.254,"lo1":-89.0895,"lo2":-89.0444,"dy":0.0017,"dx":0.0017,"nx":28,"ny":28,"refTime":"2024-03-07T09:00:00:Z","depth":0,"parameterNumber":2,"parameterNumberName":"U-component_of_WINDS"},"data":[0,0,0,0,0,0,0,0,0,0,0,0,0,0,0,0,0,0,0,0,0,0,0,0,0,0,0,0,0,0,0,0,0,0,0,0,0,0,0,0,0,0,0,0,0,0,0,0,0,0,0,0,0,0,0,0,0,0,-4.5921,-4.5921,0,-4.5978,-4.5978,-4.5979,-4.5897,-4.5894,-4.5891,-4.5888,-4.5945,-4.5949,-4.5953,0,0,0,0,0,0,0,0,0,0,0,0,0,-4.574,-4.5744,-4.5921,-4.5921,-4.5922,-4.5978,-4.5978,-4.5979,-4.5897,-4.5894,-4.589,-4.5887,-4.5944,-4.5949,-4.5954,0,0,0,0,0,0,0,0,0,0,0,0,0,-4.581,-4.5745,-4.592,-4.5888,-4.5886,-4.5977,-4.5978,-4.5979,-4.5898,-4.5894,-4.5889,-4.5885,-4.5942,-4.5948,-4.5954,-4.6081,0,0,-4.5974,-4.5977,0,0,0,0,0,0,0,0,-4.5806,-4.5817,-4.5892,-4.589,-4.5888,-4.5926,-4.5935,-4.6013,-4.5899,-4.5893,-4.5888,-4.5883,-4.5942,-4.5948,-4.5968,-4.6083,-4.6086,-4.5974,-4.5978,-4.5981,-4.5983,0,0,0,0,0,0,0,-4.5801,-4.5814,-4.5943,-4.5893,-4.5891,-4.587,-4.5875,-4.595,-4.5941,-4.5893,-4.5888,-4.5896,-4.594,-4.5962,-4.5969,-4.6086,-4.5974,-4.598,-4.5984,-4.5986,-4.6307,-4.6312,0,0,0,0,0,0,-4.5801,-4.581,-4.5941,-4.5945,-4.5836,-4.5877,-4.5883,-4.5918,-4.594,-4.5939,-4.5899,-4.5891,-4.5954,-4.5962,-4.5971,-4.6119,-4.5981,-4.5987,-4.599,-4.6303,-4.6308,-4.6314,0,0,0,0,0,0,-4.5797,-4.5813,-4.5939,-4.5876,-4.5891,-4.5885,-4.5925,-4.5921,-4.5943,-4.5945,-4.5943,-4.5924,-4.5951,-4.5962,-4.6054,-4.612,-4.599,-4.5995,-4.6297,-4.6304,-4.6311,-4.6417,0,0,0,0,0,0,-4.5792,-4.5812,-4.586,-4.5878,-4.5894,-4.6022,-4.5929,-4.5926,-4.5955,-4.5945,-4.5967,-4.5966,-4.5948,-4.6045,-4.606,-4.6126,-4.6,-4.6291,-4.63,-4.6309,-4.6407,-4.6426,-4.6443,0,0,0,0,0,-4.5786,-4.5887,-4.5863,-4.5879,-4.5954,-4.6025,-4.6035,-4.6012,-4.596,-4.6008,-4.6009,-4.5966,-4.6111,-4.6055,-4.6072,-4.614,-4.6287,-4.6298,-4.6308,-4.6399,-4.6423,-4.6442,0,0,0,0,0,0,-4.5876,-4.5889,-4.5862,-4.5972,-4.5999,-4.6011,-4.6071,-4.6038,-4.6079,-4.6068,-4.6038,-4.6044,-4.6142,-4.6151,-4.6088,-4.6263,-4.619,-4.6205,-4.6254,-4.6276,-4.6294,-4.6288,-4.6006,0,0,0,0,0,-4.591,-4.5967,-4.5975,-4.6071,-4.6086,-4.6077,-4.6107,-4.6087,-4.6113,-4.6124,-4.6131,-4.6158,-4.6209,-4.6243,-4.6291,-4.6409,-4.6412,-4.6465,-4.6483,-4.6497,-4.6509,-4.6572,-4.6595,-4.6349,-4.6349,-4.6348,0,0,-4.5977,-4.5991,-4.6029,-4.6089,-4.6107,-4.6167,-4.6086,-4.6153,-4.6196,-4.6134,-4.622,-4.6228,-4.6255,-4.6361,-4.6408,-4.6371,-4.6578,-4.6511,-4.6523,-4.6526,-4.6585,-4.6608,-4.6629,-4.6356,-4.6355,-4.6353,0,0,-4.6131,-4.6149,-4.623,-4.6251,-4.6279,-4.6273,-4.6293,-4.6312,-4.6314,-4.6401,-4.6355,-4.6407,-4.6497,-4.6518,-4.6541,-4.6706,-4.6667,-4.6722,-4.6814,-4.6876,-4.6895,-4.6912,-4.6969,-4.699,-4.6735,-4.6735,-4.6735,0,-4.6212,-4.63,-4.6276,-4.6346,-4.6374,-4.6321,-4.6403,-4.6424,-4.6467,-4.6487,-4.6446,-4.6558,-4.6573,-4.6682,-4.6723,-4.6744,-4.6764,-4.6718,-4.6894,-4.6911,-4.6927,-4.6981,-4.7002,-4.6742,-4.6741,-4.674,-4.674,0,-4.6397,-4.6459,-4.6522,-4.6565,-4.66,-4.6676,-4.6664,-4.6702,-4.6681,-4.6679,-4.6768,-4.6785,-4.6835,-4.686,-4.6839,-4.6967,-4.6943,-4.6899,-4.6824,-4.6957,-4.7007,-4.7028,-4.6751,-4.6748,-4.6746,-4.6745,0,0,-4.6606,-4.6637,-4.666,-4.6679,-4.6708,-4.6756,-4.683,-4.6879,-4.6912,-4.6945,-4.7005,-4.7083,-4.7043,-4.7069,-4.7051,-4.7105,-4.7233,-4.7054,-4.7054,-4.7084,-4.7373,-4.7404,-4.7428,-4.7209,-4.7212,-4.7216,-4.737,0,-4.6758,-4.6885,-4.6867,-4.699,-4.7046,-4.6999,-4.7063,-4.7088,-4.7089,-4.7137,-4.7138,-4.7193,-4.7137,-4.7152,-4.7204,-4.7206,-4.729,-4.7195,-4.7263,-4.7265,-4.7254,-4.7455,-4.7487,-4.7632,-4.7389,-4.7393,-4.7395,0,-4.6951,-4.6991,-4.712,-4.7141,-4.7164,-4.7222,-4.7266,-4.7313,-4.7341,-4.7338,-4.7368,-4.7341,-4.7414,-4.7341,-4.7442,-4.7378,-4.7405,-4.7411,-4.7416,-4.7419,-4.7336,-4.746,-4.7677,-4.7698,-4.7426,-4.7424,-4.7421,0,-4.7088,-4.7175,-4.7262,-4.7281,-4.7308,-4.735,-4.7363,-4.7386,-4.7418,-4.7457,-4.7476,-4.7524,-4.7549,-4.7586,-4.7572,-4.752,-4.7675,-4.7601,-4.7673,-4.7674,-4.7705,-4.7703,-4.7927,-4.7728,-4.7728,-4.7727,-4.7727,0,-4.7258,-4.7338,-4.7324,-4.7378,-4.7466,-4.7445,-4.7533,-4.7541,-4.7563,-4.7617,-4.758,-4.7631,-4.7611,-4.7661,-4.7651,-4.7735,-4.7748,-4.7746,-4.7742,-4.7748,-4.7748,-4.7763,-4.7751,-4.7733,-4.7732,-4.7731,-4.773,0,-4.7424,-4.7418,-4.7511,-4.753,-4.7537,-4.7601,-4.7617,-4.7667,-4.7666,-4.7735,-4.775,-4.7749,-4.7806,-4.7797,-4.7861,-4.7854,-4.7959,-4.7944,-4.7949,-4.7944,-4.8017,-4.8009,-4.8256,-4.8286,-4.807,-4.8073,-4.8074,0,-4.7531,-4.7591,-4.7618,-4.7652,-4.7668,-4.7723,-4.7755,-4.7738,-4.7773,-4.781,-4.7856,-4.791,-4.7952,-4.8047,-4.8051,-4.81,-4.8084,-4.8167,-4.809,-4.8094,-4.8082,-4.8077,-4.8083,-4.8181,-4.8183,-4.8185,-4.8187,0,-4.7721,-4.7716,-4.7763,-4.7811,-4.785,-4.7887,-4.7919,-4.7949,-4.7935,-4.7976,-4.8034,-4.8068,-4.8133,-4.8187,-4.8233,-4.8247,-4.8214,-4.8212,-4.8231,-4.8235,-4.8235,-4.8234,-4.7987,-4.8205,-4.8203,-4.8202,-4.8201,-4.82,-4.7859,-4.791,-4.7937,-4.7991,-4.8015,-4.8046,-4.8095,-4.8101,-4.815,-4.8202,-4.8189,-4.8255,-4.8283,-4.8341,-4.836,-4.8411,-4.838,-4.8408,-4.8414,-4.8421,-4.8428,-4.823,-4.842,-4.8419,-4.8419,-4.8418,-4.8418,0,-4.8045,-4.806,-4.8111,-4.8158,-4.8201,-4.817,-4.8204,-4.8242,-4.8301,-4.833,-4.8372,-4.844,-4.8493,-4.8503,-4.8553,-4.8592,-4.8579,-4.8606,-4.8601,-4.8604,-4.8454,-4.8432,-4.8616,-4.8616,-4.8616,-4.8616,-4.8616,-4.8616,-4.8146,-4.8231,-4.823,-4.8326,-4.8341,-4.8406,-4.8428,-4.8457,-4.848,-4.8557,-4.8601,-4.8608,-4.8629,-4.868,-4.8727,-4.8729,-4.8748,-4.878,-4.8776,-4.8635,-4.8615,-4.8596,-4.8574,-4.8786,-4.8786,-4.8921,-4.8922,-4.8923]},{"header":{"parameterUnit":"m.s-1","parameterCategory":1,"la1":30.2991,"la2":30.254,"lo1":-89.0895,"lo2":-89.0444,"dy":0.0017,"dx":0.0017,"nx":28,"ny":28,"refTime":"2024-03-07T09:00:00:Z","depth":0,"parameterNumber":3,"parameterNumberName":"V-component_of_WINDS"},"data":[0,0,0,0,0,0,0,0,0,0,0,0,0,0,0,0,0,0,0,0,0,0,0,0,0,0,0,0,0,0,0,0,0,0,0,0,0,0,0,0,0,0,0,0,0,0,0,0,0,0,0,0,0,0,0,0,0,0,1.3653,1.3654,0,1.3697,1.3697,1.3698,1.3705,1.3705,1.3704,1.3704,1.3748,1.375,1.3751,0,0,0,0,0,0,0,0,0,0,0,0,0,1.3579,1.358,1.3653,1.3654,1.3655,1.3697,1.3697,1.3698,1.3705,1.3705,1.3704,1.3704,1.3748,1.3749,1.3751,0,0,0,0,0,0,0,0,0,0,0,0,0,1.3616,1.3581,1.3653,1.3663,1.3665,1.3697,1.3697,1.3698,1.3705,1.3705,1.3704,1.3704,1.3747,1.3749,1.3751,1.3776,0,0,1.3758,1.3759,0,0,0,0,0,0,0,0,1.3613,1.3618,1.3661,1.3663,1.3664,1.3695,1.3687,1.3724,1.3705,1.369,1.3704,1.3703,1.3731,1.3734,1.3744,1.3778,1.378,1.3759,1.376,1.3761,1.3761,0,0,0,0,0,0,0,1.3611,1.3616,1.3671,1.3662,1.3664,1.3666,1.3671,1.3694,1.3713,1.3691,1.3692,1.3697,1.3732,1.3741,1.3745,1.3781,1.3758,1.376,1.3762,1.3763,1.3841,1.3841,0,0,0,0,0,0,1.3606,1.3614,1.3669,1.3672,1.3637,1.3668,1.3673,1.3686,1.3713,1.3716,1.3697,1.3697,1.3738,1.3742,1.3746,1.3779,1.3761,1.3763,1.3764,1.384,1.3841,1.3842,0,0,0,0,0,0,1.3605,1.3611,1.3667,1.3643,1.3651,1.367,1.3684,1.3687,1.3697,1.3717,1.3721,1.3704,1.3738,1.3743,1.3769,1.378,1.3764,1.3766,1.3839,1.384,1.3841,1.3843,0,0,0,0,0,0,1.3603,1.3611,1.362,1.3643,1.3652,1.3689,1.3685,1.3688,1.3701,1.3701,1.3724,1.3728,1.3738,1.3766,1.3772,1.3783,1.3768,1.3838,1.384,1.3841,1.3842,1.3844,1.3846,0,0,0,0,0,1.36,1.3618,1.362,1.3627,1.3664,1.369,1.3695,1.3706,1.3701,1.3711,1.3725,1.3727,1.3778,1.3769,1.3775,1.3787,1.3838,1.3839,1.3841,1.3841,1.3843,1.3845,0,0,0,0,0,0,1.3594,1.3621,1.3624,1.365,1.3668,1.3691,1.3704,1.3708,1.3727,1.3726,1.3739,1.3744,1.377,1.3781,1.377,1.3814,1.3808,1.3811,1.3806,1.3808,1.381,1.3807,1.377,0,0,0,0,0,1.3596,1.3615,1.3637,1.3658,1.3667,1.3684,1.3696,1.3703,1.3722,1.3729,1.3744,1.3763,1.3783,1.3796,1.3816,1.3844,1.385,1.3856,1.3857,1.3859,1.3861,1.3879,1.3882,1.3847,1.3847,1.3847,0,0,1.36,1.3617,1.3628,1.3658,1.3672,1.3692,1.369,1.3711,1.3726,1.3732,1.3758,1.377,1.3792,1.3819,1.3832,1.383,1.3873,1.3861,1.3862,1.3864,1.3881,1.3884,1.3887,1.3848,1.3848,1.3848,0,0,1.3617,1.3632,1.3652,1.3667,1.3689,1.3701,1.3705,1.3729,1.3737,1.3764,1.377,1.3788,1.3823,1.3838,1.3851,1.3877,1.388,1.3883,1.3892,1.3909,1.3912,1.3915,1.3925,1.3929,1.3885,1.3885,1.3885,0,1.3619,1.3649,1.3661,1.3682,1.3696,1.3704,1.3725,1.3739,1.3766,1.3776,1.3773,1.3818,1.3832,1.3865,1.3871,1.3881,1.3888,1.388,1.3911,1.3913,1.3916,1.3926,1.393,1.3886,1.3885,1.3885,1.3885,0,1.3651,1.3672,1.3686,1.3713,1.3728,1.3749,1.3765,1.3779,1.3786,1.3798,1.3826,1.3844,1.3869,1.3877,1.3883,1.3911,1.3909,1.3908,1.3902,1.3919,1.3929,1.3933,1.3886,1.3886,1.3886,1.3886,0,0,1.3665,1.37,1.3705,1.3719,1.3745,1.3762,1.3784,1.3809,1.3821,1.384,1.386,1.389,1.389,1.3904,1.3913,1.3927,1.3949,1.3925,1.3926,1.393,1.3983,1.3984,1.3988,1.3951,1.3952,1.3953,1.3981,0,1.3686,1.3725,1.3738,1.3771,1.3792,1.38,1.382,1.3839,1.3851,1.3871,1.3884,1.3906,1.3904,1.3913,1.3928,1.3943,1.396,1.3941,1.397,1.3971,1.3965,1.3993,1.3993,1.4019,1.3985,1.3986,1.3986,0,1.3716,1.3737,1.3772,1.3798,1.3807,1.3824,1.3849,1.3867,1.389,1.3898,1.3915,1.3923,1.3947,1.394,1.3974,1.3961,1.3974,1.3984,1.3985,1.3989,1.398,1.3998,1.4028,1.4032,1.3992,1.3992,1.3991,0,1.3724,1.3761,1.3787,1.3798,1.3829,1.3841,1.3855,1.3876,1.3891,1.3913,1.3923,1.3947,1.396,1.3979,1.3994,1.3987,1.4028,1.4021,1.4036,1.4036,1.4044,1.4044,1.4078,1.4052,1.4052,1.4051,1.4051,0,1.3746,1.3768,1.3792,1.3808,1.3833,1.3848,1.3873,1.3886,1.3906,1.3926,1.3935,1.3954,1.3971,1.3992,1.4004,1.4032,1.4037,1.4045,1.4048,1.4045,1.4044,1.4054,1.4053,1.4053,1.4052,1.4052,1.4052,0,1.3759,1.3776,1.3805,1.3833,1.384,1.3858,1.3881,1.3898,1.3912,1.3937,1.3944,1.3965,1.3991,1.4007,1.4039,1.4047,1.4078,1.408,1.4071,1.4072,1.4087,1.4086,1.4129,1.4136,1.4104,1.4104,1.4105,0,1.3773,1.379,1.3819,1.3834,1.3847,1.387,1.3886,1.3901,1.3917,1.3946,1.3959,1.3986,1.4008,1.4049,1.4067,1.4093,1.4096,1.4109,1.41,1.4097,1.4098,1.4097,1.4099,1.4111,1.4111,1.4111,1.4112,0,1.3795,1.3803,1.3825,1.3851,1.387,1.3891,1.3912,1.3923,1.3943,1.3961,1.3987,1.4005,1.4039,1.4065,1.4093,1.4107,1.4113,1.4115,1.412,1.4117,1.4111,1.4116,1.4076,1.4113,1.4113,1.4113,1.4113,1.4113,1.381,1.3826,1.385,1.3875,1.3893,1.3913,1.3931,1.3947,1.397,1.3999,1.4007,1.4036,1.406,1.4098,1.4113,1.4136,1.4134,1.4141,1.4143,1.4145,1.4146,1.4107,1.4141,1.4141,1.4141,1.4141,1.4141,0,1.3834,1.3851,1.3874,1.3903,1.3923,1.3928,1.3952,1.3968,1.3993,1.4015,1.4037,1.4069,1.4096,1.4117,1.4145,1.416,1.4163,1.4166,1.4166,1.4169,1.4145,1.4138,1.4163,1.4163,1.4163,1.4163,1.4163,1.4163,1.3849,1.3878,1.3889,1.3927,1.3944,1.3972,1.3985,1.4004,1.4022,1.4058,1.408,1.4094,1.4117,1.4146,1.4171,1.4177,1.4187,1.419,1.4197,1.4173,1.4171,1.4168,1.4162,1.4192,1.4192,1.4219,1.422,1.422]}]]